Location: Bidart
(43.4376°N, 1.5913°W)
Time: 04:47:19
(UTC+00:00)

H-2A DEB - Pass Details

Date: 18 April 2026
Orbit: 584 x 592 km, 98.2° (Epoch: 15 May)

Event Time Altitude Azimuth Distance (km) Brightness Sun altitude
Exits shadow 02:04:45 19° 333° (NNW) 1,450 ? -29.4°
Drops below altitude 10° 02:05:58 10° 338° (NNW) 1,929 ? -29.3°
Sets 02:08:11 0° 343° (NNW) 2,836 ? -29.0°
